Heber City, UT

7:00 AM MST on February 26, 2017 (GMT -0700)
Heber

Weather History for K36U - February, 2014

Change the Weather History Date:

Wednesday, February 5, 2014

  Actual Average (KPVU) Record (KPVU)
Temperature  
Mean Temperature 14 °F -  
Max Temperature 30 °F 37 °F 62 °F (2015)
Min Temperature -2 °F 22 °F -15 °F (1985)
Degree Days  
Heating Degree Days 51    
Moisture  
Dew Point 4 °F    
Average Humidity 70    
Maximum Humidity 92    
Minimum Humidity 32    
Precipitation  
Precipitation 0.00 in - - ()
Sea Level Pressure  
Sea Level Pressure 30.01 in    
Wind  
Wind Speed 2 mph (SSE)    
Max Wind Speed 9 mph    
Max Gust Speed -    
Visibility 10 miles    
Events Thunderstorm    
Averages and records for this station are not official NWS values.
T = Trace of Precipitation, MM = Missing Value Source: NWS Daily Summary

Daily Weather History Graph

Daily Weather History Graph

Search for Another Location

Airport or City:

Trip Planner

Search our weather history database for the weather conditions in past years. The results will help you decide how hot, cold, wet, or windy it might be!

Date:

Astronomy

Feb. 05, 2014 Rise Set
Actual Time 7:31 AM MST 5:48 PM MST
Civil Twilight 7:02 AM MST 6:17 PM MST
Nautical Twilight 6:30 AM MST 6:49 PM MST
Astronomical Twilight 5:58 AM MST 7:21 PM MST
Moon 10:46 AM MST (2/5) No Moon Set
Length of Visible Light 11h 15m
Length of Day
10h 17m
Waxing Crescent, 40% of the Moon is Illuminated
Feb 5
Waxing Crescent
Feb 6
First Quarter
Feb 14
Full
Feb 22
Last Quarter
Mar 1
New

Hourly Weather History & Observations

Time (MST) Temp. Windchill Dew Point Humidity Pressure Visibility Wind Dir Wind Speed Gust Speed Precip Events Conditions
12:15 AM 6.8 °F -2.0 °F 3.2 °F 85% 30.06 in 10.0 mi East 4.6 mph - N/A   Overcast
12:35 AM 10.4 °F - 5.0 °F 79% 30.05 in 10.0 mi Calm Calm - N/A   Overcast
12:55 AM 10.4 °F 4.0 °F 3.2 °F 73% 30.06 in 10.0 mi East 3.5 mph - N/A   Mostly Cloudy
1:15 AM 6.8 °F -0.1 °F 1.4 °F 79% 30.06 in 10.0 mi SSE 3.5 mph - N/A   Mostly Cloudy
1:35 AM 3.2 °F -4.2 °F -0.4 °F 85% 30.05 in 10.0 mi East 3.5 mph - N/A   Scattered Clouds
1:55 AM 3.2 °F - -0.4 °F 85% 30.06 in 10.0 mi Calm Calm - N/A   Clear
2:15 AM 5.0 °F - 3.2 °F 92% 30.06 in 10.0 mi Calm Calm - N/A   Scattered Clouds
2:35 AM 3.2 °F - -0.4 °F 85% 30.07 in 10.0 mi Calm Calm - N/A   Clear
2:55 AM 3.2 °F - -0.4 °F 85% 30.07 in 10.0 mi Calm Calm - N/A   Clear
3:15 AM 1.4 °F -9.9 °F -2.2 °F 85% 30.07 in 10.0 mi ESE 5.8 mph - N/A   Clear
3:35 AM 3.2 °F - -0.4 °F 85% 30.07 in 10.0 mi Calm Calm - N/A   Clear
3:55 AM 3.2 °F - -0.4 °F 85% 30.07 in 10.0 mi Calm Calm - N/A   Clear
4:15 AM 3.2 °F -4.2 °F -0.4 °F 85% 30.07 in 10.0 mi WSW 3.5 mph - N/A   Clear
4:35 AM 1.4 °F -6.2 °F -2.2 °F 85% 30.07 in 10.0 mi South 3.5 mph - N/A   Clear
4:55 AM -0.4 °F - -4.0 °F 85% 30.07 in 10.0 mi Calm Calm - N/A   Clear
5:15 AM -0.4 °F - -4.0 °F 85% 30.07 in 10.0 mi Calm Calm - N/A   Clear
5:35 AM 1.4 °F - -0.4 °F 92% 30.08 in 10.0 mi Calm Calm - N/A   Clear
5:55 AM -0.4 °F -8.3 °F -5.8 °F 78% 30.07 in 10.0 mi SSE 3.5 mph - N/A   Scattered Clouds
6:15 AM 3.2 °F - 1.4 °F 92% 30.07 in 10.0 mi Calm Calm - N/A   Overcast
6:35 AM 3.2 °F - 1.4 °F 92% 30.08 in 10.0 mi Calm Calm - N/A   Overcast
6:55 AM 1.4 °F - -4.0 °F 78% 30.07 in 10.0 mi Calm Calm - N/A   Scattered Clouds
7:15 AM 1.4 °F - -4.0 °F 78% 30.07 in 7.0 mi Calm Calm - N/A   Clear
7:35 AM -0.4 °F - -4.0 °F 85% 30.07 in 10.0 mi Calm Calm - N/A   Clear
7:55 AM -2.2 °F - -5.8 °F 85% 30.07 in 10.0 mi Calm Calm - N/A   Clear
8:15 AM -0.4 °F - -4.0 °F 85% 30.07 in 10.0 mi Calm Calm - N/A   Clear
8:35 AM 3.2 °F - -0.4 °F 85% 30.08 in 4.0 mi Calm Calm - N/A   Clear
8:55 AM 5.0 °F - 1.4 °F 85% 30.08 in 10.0 mi Calm Calm - N/A   Clear
9:15 AM 5.0 °F - 3.2 °F 92% 30.08 in 10.0 mi Calm Calm - N/A   Scattered Clouds
9:35 AM 8.6 °F - 5.0 °F 85% 30.08 in 10.0 mi Calm Calm - N/A   Scattered Clouds
9:55 AM 8.6 °F - 5.0 °F 85% 30.08 in 10.0 mi Calm Calm - N/A   Clear
10:15 AM 10.4 °F - 6.8 °F 85% 30.07 in 10.0 mi Calm Calm - N/A   Clear
10:35 AM 12.2 °F - 5.0 °F 73% 30.07 in 10.0 mi Calm Calm - N/A   Mostly Cloudy
10:55 AM 12.2 °F - 5.0 °F 73% 30.07 in 7.0 mi Calm Calm - N/A   Mostly Cloudy
11:15 AM 17.6 °F - 6.8 °F 63% 30.06 in 10.0 mi Calm Calm - N/A   Scattered Clouds
11:35 AM 19.4 °F - 5.0 °F 54% 30.05 in 10.0 mi Calm Calm - N/A   Scattered Clouds
11:55 AM 19.4 °F - 8.6 °F 63% 30.04 in 10.0 mi Calm Calm - N/A   Mostly Cloudy
12:15 PM 17.6 °F - 8.6 °F 68% 30.03 in 10.0 mi Calm Calm - N/A   Overcast
12:35 PM 19.4 °F - 8.6 °F 63% 30.02 in 10.0 mi Calm Calm - N/A   Overcast
12:55 PM 21.2 °F 16.4 °F 8.6 °F 58% 30.00 in 10.0 mi NNE 3.5 mph - N/A   Overcast
1:15 PM 23.0 °F - 10.4 °F 59% 29.99 in 10.0 mi Calm Calm - N/A   Mostly Cloudy
1:35 PM 23.0 °F - 10.4 °F 59% 29.97 in 10.0 mi Calm Calm - N/A   Mostly Cloudy
1:55 PM 24.8 °F - 10.4 °F 54% 29.96 in 10.0 mi Calm Calm - N/A   Scattered Clouds
2:15 PM 26.6 °F - 12.2 °F 55% 29.96 in 10.0 mi Calm Calm - N/A   Scattered Clouds
2:35 PM 30.2 °F - 8.6 °F 40% 29.95 in 10.0 mi Calm Calm - N/A   Mostly Cloudy
2:55 PM 30.2 °F - 8.6 °F 40% 29.94 in 10.0 mi Calm Calm - N/A   Mostly Cloudy
3:15 PM 28.4 °F 21.2 °F 8.6 °F 43% 29.94 in 10.0 mi SW 6.9 mph - N/A   Overcast
3:35 PM 30.2 °F 22.6 °F 5.0 °F 34% 29.94 in 10.0 mi WSW 8.1 mph - N/A   Mostly Cloudy
3:55 PM 30.2 °F 24.3 °F 5.0 °F 34% 29.94 in 10.0 mi WSW 5.8 mph - N/A   Scattered Clouds
4:15 PM 30.2 °F 25.4 °F 3.2 °F 32% 29.94 in 10.0 mi SSW 4.6 mph - N/A   Scattered Clouds
4:35 PM 28.4 °F 20.4 °F 5.0 °F 37% 29.94 in 10.0 mi WSW 8.1 mph - N/A   Scattered Clouds
4:55 PM 26.6 °F 17.5 °F 5.0 °F 40% 29.94 in 10.0 mi WSW 9.2 mph - N/A   Mostly Cloudy
5:15 PM 26.6 °F 19.1 °F 5.0 °F 40% 29.94 in 10.0 mi WSW 6.9 mph - N/A   Overcast
5:35 PM 23.0 °F 15.8 °F 5.0 °F 46% 29.94 in 10.0 mi WSW 5.8 mph - N/A   Overcast
5:55 PM 21.2 °F 14.9 °F 5.0 °F 50% 29.94 in 10.0 mi SW 4.6 mph - N/A Thunderstorm Thunderstorm
6:15 PM 19.4 °F - 5.0 °F 54% 29.94 in 10.0 mi Calm Calm - N/A Thunderstorm Thunderstorm
6:35 PM 17.6 °F - 5.0 °F 58% 29.95 in 10.0 mi Calm Calm - N/A   Overcast
6:55 PM 17.6 °F 10.7 °F 5.0 °F 58% 29.95 in 10.0 mi NE 4.6 mph - N/A   Mostly Cloudy
7:15 PM 14.0 °F 6.5 °F 5.0 °F 67% 29.95 in 10.0 mi East 4.6 mph - N/A   Scattered Clouds
7:35 PM 12.2 °F 2.9 °F 3.2 °F 67% 29.95 in 10.0 mi ESE 5.8 mph - N/A   Scattered Clouds
7:55 PM 12.2 °F 4.3 °F 3.2 °F 67% 29.95 in 10.0 mi East 4.6 mph - N/A   Mostly Cloudy
8:15 PM 17.6 °F 10.7 °F 8.6 °F 68% 29.96 in 10.0 mi East 4.6 mph - N/A   Overcast
8:35 PM 17.6 °F 12.3 °F 6.8 °F 63% 29.95 in 10.0 mi SW 3.5 mph - N/A   Overcast
8:55 PM 14.0 °F - 5.0 °F 67% 29.95 in 10.0 mi Calm Calm - N/A   Overcast
9:15 PM 15.8 °F - 6.8 °F 68% 29.95 in 10.0 mi Calm Calm - N/A   Overcast
9:35 PM 15.8 °F - 6.8 °F 68% 29.95 in 10.0 mi Calm Calm - N/A   Mostly Cloudy
9:55 PM 15.8 °F - 8.6 °F 73% 29.94 in 10.0 mi Calm Calm - N/A   Overcast
10:15 PM 14.0 °F 5.1 °F 8.6 °F 79% 29.94 in 10.0 mi East 5.8 mph - N/A   Mostly Cloudy
10:35 PM 17.6 °F - 6.8 °F 63% 29.94 in 10.0 mi Calm Calm - N/A   Overcast
10:55 PM 14.0 °F - 6.8 °F 73% 29.94 in 10.0 mi Calm Calm - N/A   Overcast
11:15 PM 14.0 °F - 6.8 °F 73% 29.94 in 10.0 mi Calm Calm - N/A   Overcast
11:35 PM 12.2 °F - 6.8 °F 79% 29.94 in 10.0 mi Calm Calm - N/A   Overcast
11:55 PM 14.0 °F - 8.6 °F 79% 29.93 in 10.0 mi Calm Calm - N/A   Overcast